Terug naar catalogus

STARLINK-35576

ActiefCommunicatieVLEO
NORAD 66137·PAYLOAD·🇺🇸 United States

Gelanceerd Oct 22, 2025 vanaf Vandenberg Space Force Base

Loading…

Volgende Passages (komende 24 uur)

TLE

VersSource: CelesTrak SupGP

Epoch: Sep 14, 2026, 20:41 UTC

1 66137C 25237Z   26257.86229167  .00046548  00000+0  13753-2 0  2579
2 66137  53.1571 237.8126 0001201 101.2210  43.6151 15.34367632    18

Volg STARLINK-35576 in realtime met AllMySat

Download on the App Store